When you browse on this site, cookies collect data to enhance your experience and personalize the content and advertising you see.
Visit our Privacy Policy to learn more. By continuing to use the site, you agree to this use of cookies and data.
  • In Deutschland
  • Länderverzeichnis
  • Für 7 Tage
  • Wassertemperatur
  • Satellitenkarten
  • Wetterkarte
  • Widgets
  • user-avatar
    Anmelden

    Stündliche Wetter Osnabrück

    Heute, 21 Februar, Donnerstag

    Zeit Temperatur Niederschläge Wind Luftdruck Luftfeuchtigkeit
    00:00 +7°C° 0 mm 3 m/S 761 mmHg 75%
    01:00 +6°C° 0 mm 4 m/S 761 mmHg 75%
    02:00 +6°C° 0 mm 4 m/S 761 mmHg 79%
    03:00 +6°C° 0 mm 4 m/S 761 mmHg 82%
    04:00 +5°C° 0 mm 4 m/S 761 mmHg 86%
    05:00 +5°C° 0 mm 4 m/S 761 mmHg 88%
    06:00 +4°C° 0 mm 4 m/S 761 mmHg 91%
    07:00 +4°C° 0 mm 4 m/S 761 mmHg 94%
    08:00 +5°C° 0 mm 4 m/S 762 mmHg 90%
    09:00 +5°C° 0 mm 4 m/S 762 mmHg 87%
    10:00 +6°C° 0 mm 5 m/S 762 mmHg 84%
    11:00 +7°C° 0 mm 5 m/S 762 mmHg 80%
    12:00 +8°C° 0 mm 5 m/S 762 mmHg 76%
    13:00 +9°C° 0 mm 5 m/S 762 mmHg 72%
    14:00 +9°C° 0.1 mm 5 m/S 762 mmHg 76%
    15:00 +8°C° 0.1 mm 5 m/S 762 mmHg 79%
    16:00 +8°C° 0.1 mm 5 m/S 762 mmHg 83%
    17:00 +8°C° 0.1 mm 5 m/S 763 mmHg 85%
    18:00 +7°C° 0.1 mm 4 m/S 763 mmHg 87%
    19:00 +7°C° 0.1 mm 4 m/S 763 mmHg 89%
    20:00 +7°C° 0.1 mm 4 m/S 764 mmHg 91%
    21:00 +7°C° 0.1 mm 4 m/S 764 mmHg 92%
    22:00 +7°C° 0.1 mm 4 m/S 765 mmHg 94%
    23:00 +7°C° 0.1 mm 4 m/S 765 mmHg 94%

    Morgen, 22 Februar, Freitag

    Zeit Temperatur Niederschläge Wind Luftdruck Luftfeuchtigkeit
    00:00 +8°C° 0.1 mm 3 m/S 765 mmHg 95%
    01:00 +8°C° 0.1 mm 3 m/S 766 mmHg 96%
    02:00 +8°C° 0 mm 3 m/S 766 mmHg 96%
    03:00 +8°C° 0 mm 2 m/S 766 mmHg 97%
    04:00 +8°C° 0 mm 2 m/S 766 mmHg 97%
    05:00 +8°C° 0 mm 2 m/S 767 mmHg 97%
    06:00 +8°C° 0 mm 2 m/S 767 mmHg 98%
    07:00 +9°C° 0 mm 1 m/S 768 mmHg 98%
    08:00 +8°C° 0 mm 2 m/S 768 mmHg 95%
    09:00 +8°C° 0 mm 2 m/S 769 mmHg 93%
    10:00 +8°C° 0 mm 2 m/S 769 mmHg 90%
    11:00 +9°C° 0 mm 2 m/S 770 mmHg 85%
    12:00 +9°C° 0 mm 2 m/S 770 mmHg 80%
    13:00 +10°C° 0 mm 2 m/S 771 mmHg 75%
    14:00 +10°C° 0 mm 2 m/S 771 mmHg 74%
    15:00 +10°C° 0 mm 2 m/S 771 mmHg 72%
    16:00 +12°C° 0 mm 2 m/S 771 mmHg 71%
    17:00 +10°C° 0 mm 2 m/S 771 mmHg 75%
    18:00 +9°C° 0 mm 2 m/S 771 mmHg 79%
    19:00 +8°C° 0 mm 2 m/S 772 mmHg 82%
    20:00 +7°C° 0 mm 2 m/S 772 mmHg 83%
    21:00 +6°C° 0 mm 2 m/S 772 mmHg 83%
    22:00 +6°C° 0 mm 2 m/S 773 mmHg 84%
    23:00 +5°C° 0 mm 2 m/S 773 mmHg 85%

    übermorgen, 23 Februar, Samstag

    Zeit Temperatur Niederschläge Wind Luftdruck Luftfeuchtigkeit
    00:00 +5°C° 0 mm 2 m/S 773 mmHg 86%
    01:00 +5°C° 0 mm 2 m/S 772 mmHg 88%
    02:00 +4°C° 0 mm 2 m/S 772 mmHg 86%
    03:00 +4°C° 0 mm 2 m/S 772 mmHg 85%
    04:00 +2°C° 0 mm 3 m/S 772 mmHg 84%
    05:00 +2°C° 0 mm 3 m/S 772 mmHg 82%
    06:00 +3°C° 0 mm 2 m/S 772 mmHg 79%
    07:00 +2°C° 0 mm 2 m/S 772 mmHg 77%
    08:00 +2°C° 0 mm 3 m/S 772 mmHg 70%
    09:00 +3°C° 0 mm 3 m/S 772 mmHg 63%
    10:00 +4°C° 0 mm 3 m/S 773 mmHg 56%
    11:00 +7°C° 0 mm 3 m/S 772 mmHg 51%
    12:00 +8°C° 0 mm 3 m/S 772 mmHg 46%
    13:00 +9°C° 0 mm 3 m/S 772 mmHg 40%
    14:00 +10°C° 0 mm 3 m/S 772 mmHg 40%
    15:00 +10°C° 0 mm 3 m/S 772 mmHg 39%
    16:00 +10°C° 0 mm 3 m/S 771 mmHg 39%
    17:00 +9°C° 0 mm 3 m/S 772 mmHg 42%
    18:00 +8°C° 0 mm 3 m/S 772 mmHg 45%
    19:00 +5°C° 0 mm 3 m/S 772 mmHg 48%
    20:00 +5°C° 0 mm 3 m/S 772 mmHg 48%
    21:00 +4°C° 0 mm 3 m/S 772 mmHg 47%
    22:00 +4°C° 0 mm 3 m/S 772 mmHg 47%
    23:00 +5°C° 0 mm 2 m/S 772 mmHg 48%

    24 Februar, Sonntag

    Zeit Temperatur Niederschläge Wind Luftdruck Luftfeuchtigkeit
    00:00 +4°C° 0 mm 2 m/S 772 mmHg 48%
    01:00 +4°C° 0 mm 2 m/S 772 mmHg 49%
    02:00 +4°C° 0 mm 2 m/S 772 mmHg 49%
    03:00 +3°C° 0 mm 2 m/S 771 mmHg 50%
    04:00 +3°C° 0 mm 2 m/S 771 mmHg 51%
    05:00 +3°C° 0 mm 2 m/S 771 mmHg 51%
    06:00 +3°C° 0 mm 2 m/S 771 mmHg 52%
    07:00 +3°C° 0 mm 2 m/S 771 mmHg 53%
    08:00 +4°C° 0 mm 2 m/S 772 mmHg 51%
    09:00 +5°C° 0 mm 2 m/S 772 mmHg 49%
    10:00 +6°C° 0 mm 2 m/S 772 mmHg 48%
    11:00 +8°C° 0 mm 2 m/S 772 mmHg 44%
    12:00 +11°C° 0 mm 1 m/S 772 mmHg 41%
    13:00 +12°C° 0 mm 1 m/S 772 mmHg 37%
    14:00 +13°C° 0 mm 1 m/S 772 mmHg 38%
    15:00 +13°C° 0 mm 1 m/S 771 mmHg 40%
    16:00 +14°C° 0 mm 1 m/S 771 mmHg 41%
    17:00 +12°C° 0 mm 1 m/S 771 mmHg 45%
    18:00 +10°C° 0 mm 2 m/S 771 mmHg 50%
    19:00 +8°C° 0 mm 2 m/S 771 mmHg 54%
    20:00 +8°C° 0 mm 2 m/S 771 mmHg 56%
    21:00 +7°C° 0 mm 2 m/S 772 mmHg 57%
    22:00 +8°C° 0 mm 1 m/S 772 mmHg 59%
    23:00 +8°C° 0 mm 1 m/S 772 mmHg 60%

    25 Februar, Montag

    Zeit Temperatur Niederschläge Wind Luftdruck Luftfeuchtigkeit
    00:00 +7°C° 0 mm 1 m/S 772 mmHg 61%
    01:00 +7°C° 0 mm 1 m/S 772 mmHg 62%
    02:00 +7°C° 0 mm 1 m/S 772 mmHg 62%
    03:00 +7°C° 0 mm 1 m/S 772 mmHg 61%
    04:00 +7°C° 0 mm 1 m/S 772 mmHg 61%
    05:00 +7°C° 0 mm 1 m/S 772 mmHg 63%
    06:00 +6°C° 0 mm 1 m/S 772 mmHg 64%
    07:00 +5°C° 0 mm 0 m/S 772 mmHg 66%
    08:00 +7°C° 0 mm 1 m/S 772 mmHg 63%
    09:00 +8°C° 0 mm 1 m/S 772 mmHg 60%
    10:00 +9°C° 0 mm 2 m/S 772 mmHg 57%
    11:00 +10°C° 0 mm 2 m/S 772 mmHg 54%
    12:00 +13°C° 0 mm 2 m/S 772 mmHg 51%
    13:00 +14°C° 0 mm 2 m/S 772 mmHg 47%
    14:00 +15°C° 0 mm 2 m/S 772 mmHg 49%
    15:00 +15°C° 0 mm 2 m/S 771 mmHg 50%
    16:00 +15°C° 0 mm 2 m/S 771 mmHg 52%
    17:00 +13°C° 0 mm 2 m/S 771 mmHg 56%
    18:00 +12°C° 0 mm 2 m/S 771 mmHg 61%
    19:00 +9°C° 0 mm 2 m/S 771 mmHg 65%
    20:00 +10°C° 0 mm 1 m/S 771 mmHg 66%
    21:00 +9°C° 0 mm 1 m/S 771 mmHg 67%
    22:00 +9°C° 0 mm 1 m/S 771 mmHg 68%
    23:00 +8°C° 0 mm 1 m/S 771 mmHg 69%

    26 Februar, Dienstag

    Zeit Temperatur Niederschläge Wind Luftdruck Luftfeuchtigkeit
    00:00 +8°C° 0 mm 1 m/S 771 mmHg 70%
    01:00 +8°C° 0 mm 1 m/S 771 mmHg 70%
    02:00 +7°C° 0 mm 1 m/S 770 mmHg 71%
    03:00 +7°C° 0 mm 1 m/S 770 mmHg 71%
    04:00 +7°C° 0 mm 1 m/S 770 mmHg 72%
    05:00 +7°C° 0 mm 1 m/S 770 mmHg 73%
    06:00 +6°C° 0 mm 1 m/S 769 mmHg 73%
    07:00 +6°C° 0 mm 1 m/S 769 mmHg 74%
    08:00 +8°C° 0 mm 1 m/S 769 mmHg 69%
    09:00 +9°C° 0 mm 1 m/S 769 mmHg 65%
    10:00 +10°C° 0 mm 1 m/S 769 mmHg 60%
    11:00 +12°C° 0 mm 1 m/S 769 mmHg 55%
    12:00 +13°C° 0 mm 1 m/S 769 mmHg 50%
    13:00 +15°C° 0 mm 1 m/S 769 mmHg 46%
    14:00 +15°C° 0 mm 1 m/S 769 mmHg 45%
    15:00 +15°C° 0 mm 1 m/S 768 mmHg 45%
    16:00 +16°C° 0 mm 1 m/S 768 mmHg 45%
    17:00 +14°C° 0 mm 1 m/S 768 mmHg 50%
    18:00 +13°C° 0 mm 1 m/S 768 mmHg 55%
    19:00 +11°C° 0 mm 1 m/S 768 mmHg 60%
    20:00 +11°C° 0 mm 1 m/S 768 mmHg 62%
    21:00 +10°C° 0 mm 1 m/S 768 mmHg 65%
    22:00 +10°C° 0 mm 1 m/S 768 mmHg 68%
    23:00 +9°C° 0 mm 1 m/S 767 mmHg 69%
    Mehr zeigen